Location: Melbourne
(37.8666°S, 145.1333°E)
Time: 11:15:08
(UTC+11:00)

Amateur Radio Satellites - All Passes

Search period start: 17 October 2017 10:45
Search period end: 18 October 2017 10:45
Location: Melbourne, 37.8666°S, 145.1333°E

Satellite Date Start Highest point End Downlink Frequencies (MHz)
Time Altitude Azimuth
ESTCUBE 1 17 Oct 10:46:09 10:48:09 13° 117° (ESE) 10:50:10 437.505/2401.250
DELFI C3 17 Oct 10:51:15 10:54:46 29° 276° (W) 10:58:21 145.870
BEESAT 2 17 Oct 11:02:41 11:06:02 27° 128° (SE) 11:09:22 435.950
EO-88 17 Oct 11:05:40 11:09:00 33° 278° (W) 11:12:24 145.990 - 145.960
Max Valier Satellite 17 Oct 11:05:52 11:08:54 24° 276° (W) 11:11:58 145.860
UNISAT 6 17 Oct 11:07:30 11:11:55 73° 78° (ENE) 11:16:21 437.425
FO-29 17 Oct 11:19:38 11:25:08 32° 245° (WSW) 11:30:05 435.910
TIGRISAT 17 Oct 11:23:34 11:27:58 82° 258° (WSW) 11:32:24 435.000
BEESAT 3 17 Oct 11:29:37 11:33:14 39° 295° (WNW) 11:36:52 437.485
AO-85 17 Oct 11:35:26 11:40:01 47° 126° (SE) 11:44:12 145.980
PRISM 17 Oct 11:56:40 12:00:51 71° 255° (WSW) 12:04:56 437.425
AIST 2D 17 Oct 11:57:57 12:01:01 25° 84° (E) 12:04:03 435.315
YUBILEINY 17 Oct 12:04:29 12:08:50 15° 257° (WSW) 12:13:09 435.215
LO-87 17 Oct 12:09:01 12:12:28 44° 279° (W) 12:15:59 145.935 - 145.965
SPROUT 17 Oct 12:17:04 12:20:43 28° 110° (ESE) 12:24:24 437.525
ESTCUBE 1 17 Oct 12:19:53 12:24:22 61° 281° (W) 12:28:56 437.505/2401.250
VELOX 1 17 Oct 12:29:02 12:32:51 28° 111° (ESE) 12:36:42 145.980
BEESAT 2 17 Oct 12:40:32 12:43:36 22° 292° (WNW) 12:46:41 435.950
EO-79 17 Oct 12:57:07 13:01:14 46° 81° (E) 13:05:20 145.935-145.965
RS-15 17 Oct 12:57:17 13:06:55 38° 73° (ENE) 13:16:32 29.354- 29.394
POLYITAN 1 17 Oct 13:00:33 13:04:44 51° 80° (E) 13:08:53 437.675
AO-85 17 Oct 13:17:12 13:19:54 16° 287° (WNW) 13:22:30 145.980
QB50P2 17 Oct 13:20:27 13:24:44 81° 255° (WSW) 13:29:00 145.880/145.840
NANOSAT C BR1 17 Oct 13:28:06 13:32:23 83° 257° (WSW) 13:36:37 145.865
AIST 2D 17 Oct 13:31:32 13:33:59 17° 249° (WSW) 13:36:23 435.315
DUCHIFAT 1 17 Oct 13:41:19 13:45:33 67° 255° (WSW) 13:49:44 145.980
DX 1 17 Oct 13:48:13 13:52:29 50° 107° (ESE) 13:56:49 434.975-435.025
50 SAT 17 Oct 13:52:11 13:55:30 70° 104° (ESE) 13:58:51 437.505
SPROUT 17 Oct 13:53:09 13:56:33 23° 275° (W) 13:59:59 437.525
M-CUBED/EXP-1 PRIME 17 Oct 13:57:22 14:00:03 16° 84° (E) 14:02:38 437.505
Gurwin Techsat 1B 17 Oct 14:02:04 14:05:28 17° 88° (E) 14:08:51 435.225
Oscar 19 17 Oct 14:03:13 14:07:33 25° 85° (E) 14:11:50 437.125/150
VELOX 1 17 Oct 14:05:30 14:09:12 25° 276° (W) 14:12:58 145.980
BUGSAT 1 17 Oct 14:05:53 14:09:54 54° 80° (E) 14:13:54 437.445
UKube-1 17 Oct 14:21:00 14:25:20 75° 105° (ESE) 14:29:45 .
EO-79 17 Oct 14:34:18 14:36:34 14° 245° (WSW) 14:38:48 145.935-145.965
POLYITAN 1 17 Oct 14:38:02 14:40:01 13° 245° (WSW) 14:42:01 437.675
RS-15 17 Oct 15:08:02 15:18:42 58° 232° (SW) 15:29:32 29.354- 29.394
ITUPSAT 1 17 Oct 15:25:59 15:30:31 44° 109° (ESE) 15:35:06 437.325
DX 1 17 Oct 15:26:47 15:28:55 13° 272° (W) 15:31:05 434.975-435.025
M-CUBED/EXP-1 PRIME 17 Oct 15:30:23 15:34:41 44° 247° (WSW) 15:38:40 437.505
MOZHAYETS 4 17 Oct 15:35:40 15:40:10 61° 105° (ESE) 15:44:45
CUBESAT XI-V 17 Oct 15:38:15 15:40:44 14° 116° (ESE) 15:43:13 437.345
Gurwin Techsat 1B 17 Oct 15:40:28 15:45:44 56° 252° (WSW) 15:50:56 435.225
Oscar 19 17 Oct 15:42:06 15:46:53 36° 249° (WSW) 15:51:38 437.125/150
BUGSAT 1 17 Oct 15:43:22 15:44:45 11° 245° (WSW) 15:46:07 437.445
BEESAT 17 Oct 15:44:04 15:48:49 71° 105° (ESE) 15:53:38 436.000
ITAMSAT 1 17 Oct 16:06:20 16:10:23 22° 85° (E) 16:14:24 435.822/435.867
NO-84 17 Oct 16:24:38 16:27:03 24° 52° (NE) 16:29:32 435.350 FM
AO-7 17 Oct 16:28:30 16:36:40 51° 78° (ENE) 16:44:43 .
ITUPSAT 1 17 Oct 17:05:21 17:08:31 17° 273° (W) 17:11:43 437.325
CUBESAT XI-V 17 Oct 17:12:57 17:17:32 57° 280° (W) 17:22:14 437.345
MOZHAYETS 4 17 Oct 17:16:10 17:17:42 11° 270° (W) 17:19:14
BEESAT 17 Oct 17:26:04 17:27:03 11° 270° (W) 17:28:02 436.000
RS-15 17 Oct 17:26:43 17:34:12 20° 203° (SSW) 17:41:49 29.354- 29.394
KKS-1 17 Oct 17:32:08 17:36:36 70° 105° (ESE) 17:41:08 437.445
ITAMSAT 1 17 Oct 17:45:05 17:49:57 40° 250° (WSW) 17:54:47 435.822/435.867
NO-84 17 Oct 18:02:00 18:04:19 21° 215° (SW) 18:06:43 435.350 FM
STARS 17 Oct 18:16:21 18:20:48 85° 107° (ESE) 18:25:17 437.465
XW-2B 17 Oct 18:18:14 18:19:03 11° 89° (E) 18:19:54 145.730 - 145.750
AO-7 17 Oct 18:21:42 18:29:05 36° 240° (WSW) 18:36:26 .
DOVE 4 17 Oct 18:31:26 18:36:03 82° 80° (E) 18:40:22 437.250
XW-2C 17 Oct 18:39:17 18:42:16 21° 85° (E) 18:45:14 145.795 - 145.815
O/OREOS (USA 219) 17 Oct 19:04:56 19:08:16 20° 121° (ESE) 19:11:35 437.305
LilacSat-2 17 Oct 19:23:44 19:27:43 85° 79° (ENE) 19:31:38 437.200
CUTE-I 17 Oct 19:25:21 19:30:40 56° 79° (E) 19:35:53 437.470
XW-2F 17 Oct 19:27:05 19:31:00 81° 79° (E) 19:34:52 145.980 - 146.000
KAITUO 1B 17 Oct 19:32:12 19:36:05 72° 79° (E) 19:39:54 145.475/437.950
CUTE 1.7 + AOD 2 17 Oct 19:35:36 19:38:52 20° 86° (E) 19:42:06 437.475
XW-2D 17 Oct 19:36:16 19:40:11 69° 256° (WSW) 19:44:03 145.860 - 145.880
STRAND 1 17 Oct 19:42:47 19:47:51 59° 107° (ESE) 19:52:57 437.568
FO-29 17 Oct 19:44:59 19:49:48 18° 121° (ESE) 19:54:30 435.910
RS-15 17 Oct 19:46:05 19:52:51 17° 165° (SSE) 19:59:45 29.354- 29.394
XW-2B 17 Oct 19:49:41 19:53:28 48° 254° (WSW) 19:57:14 145.730 - 145.750
SEEDS 17 Oct 19:50:41 19:53:40 18° 87° (E) 19:56:37 437.485
NUDT-PHONESAT 17 Oct 19:53:05 19:56:53 62° 256° (WSW) 20:00:37 437.300
CUBEBUG 2 17 Oct 19:55:24 19:58:26 19° 86° (E) 20:01:30 437.445
XW-2C 17 Oct 20:13:09 20:16:23 25° 251° (WSW) 20:19:35 145.795 - 145.815
HO-68 17 Oct 20:23:45 20:30:57 66° 77° (ENE) 20:38:03 435.675
SO-50 17 Oct 20:24:14 20:29:02 88° 60° (ENE) 20:33:54 436.795
AAUSAT CUBESAT 2 17 Oct 20:26:27 20:29:33 20° 86° (E) 20:32:37 437.432
ZACube-1 17 Oct 20:28:53 20:30:59 13° 88° (E) 20:33:05 437.345
UWE-3 17 Oct 20:40:55 20:44:54 34° 83° (E) 20:48:57 435.000/436.395/437.385
O/OREOS (USA 219) 17 Oct 20:43:37 20:47:48 37° 285° (WNW) 20:51:56 437.305
XW-2A 17 Oct 20:53:56 20:57:23 61° 80° (E) 21:00:49 145.665 - 145.685
CUTE-I 17 Oct 21:06:39 21:10:12 18° 243° (WSW) 21:13:44 437.470
YUBILEINY 17 Oct 21:09:11 21:15:32 23° 99° (E) 21:21:53 435.215
CUTE 1.7 + AOD 2 17 Oct 21:10:50 21:14:42 31° 251° (WSW) 21:18:31 437.475
Oscar 11 17 Oct 21:11:32 21:15:08 24° 85° (E) 21:18:42 .
PCSat 17 Oct 21:23:41 21:28:56 54° 67° (ENE) 21:34:14 145.827
STRAND 1 17 Oct 21:24:31 21:27:22 15° 272° (W) 21:30:15 437.568
SEEDS 17 Oct 21:25:29 21:29:25 34° 252° (WSW) 21:33:17 437.485
FO-29 17 Oct 21:25:53 21:33:48 86° 105° (ESE) 21:41:30 435.910
CUBEBUG 2 17 Oct 21:31:13 21:35:06 34° 252° (WSW) 21:39:02 437.445
AO-73 17 Oct 21:43:24 21:47:49 85° 77° (ENE) 21:52:17 145.935
RS-15 17 Oct 21:58:47 22:09:26 44° 133° (SE) 22:20:28 29.354- 29.394
JUGNU 17 Oct 21:59:55 22:02:39 13° 1° (N) 22:05:24 437.505
AAUSAT CUBESAT 2 17 Oct 22:01:16 22:05:01 30° 251° (WSW) 22:08:42 437.432
ZACube-1 17 Oct 22:03:14 22:07:29 50° 254° (WSW) 22:11:47 437.345
UNISAT 6 17 Oct 22:04:21 22:08:35 49° 107° (ESE) 22:12:47 437.425
SO-50 17 Oct 22:07:44 22:10:11 14° 222° (SW) 22:12:37 436.795
HO-68 17 Oct 22:12:37 22:18:02 24° 240° (WSW) 22:23:25 435.675
UWE-3 17 Oct 22:18:00 22:21:06 19° 248° (WSW) 22:24:13 435.000/436.395/437.385
Tancredo 1 17 Oct 22:18:23 22:20:12 38° 217° (SW) 22:22:03 437.200
TIGRISAT 17 Oct 22:20:06 22:24:27 68° 104° (ESE) 22:28:47 435.000
DELFI C3 17 Oct 22:29:22 22:33:08 37° 82° (E) 22:36:50 145.870
EO-88 17 Oct 22:36:05 22:39:02 22° 85° (E) 22:41:57 145.990 - 145.960
Max Valier Satellite 17 Oct 22:36:45 22:40:11 32° 83° (E) 22:43:34 145.860
nSIGHT-1 17 Oct 22:42:32 22:44:39 16° 51° (NE) 22:46:47 .
PRISM 17 Oct 22:43:25 22:47:33 62° 105° (ESE) 22:51:45 437.425
Oscar 11 17 Oct 22:47:27 22:51:12 27° 250° (WSW) 22:54:54 .
NO-84 17 Oct 22:58:44 23:00:35 14° 150° (SSE) 23:02:30 435.350 FM
YUBILEINY 17 Oct 23:02:33 23:11:23 71° 261° (W) 23:20:18 435.215
ISS 17 Oct 23:05:10 23:07:56 24° 48° (NE) 23:10:44 437.550
PCSat 17 Oct 23:08:31 23:12:40 22° 229° (SW) 23:16:50 145.827
FO-29 17 Oct 23:14:26 23:19:25 18° 270° (W) 23:24:22 435.910
LO-87 17 Oct 23:38:29 23:40:36 15° 87° (E) 23:42:42 145.935 - 145.965
UNISAT 6 17 Oct 23:43:29 23:45:31 13° 272° (W) 23:47:34 437.425
EO-79 17 Oct 23:47:46 23:51:22 27° 110° (ESE) 23:54:59 145.935-145.965
JUGNU 17 Oct 23:49:24 23:50:48 11° 350° (N) 23:52:11 437.505
POLYITAN 1 17 Oct 23:51:18 23:54:59 30° 109° (ESE) 23:58:43 437.675
AIST 2D 18 Oct 00:02:25 00:05:54 62° 281° (W) 00:09:28 435.315
DELFI C3 18 Oct 00:05:10 00:07:31 15° 247° (WSW) 00:09:51 145.870
EO-88 18 Oct 00:09:40 00:12:33 21° 250° (WSW) 00:15:24 145.990 - 145.960
QB50P2 18 Oct 00:10:44 00:14:54 57° 106° (ESE) 00:19:06 145.880/145.840
RS-15 18 Oct 00:11:08 00:22:10 58° 292° (WNW) 00:33:44 29.354- 29.394
Max Valier Satellite 18 Oct 00:11:26 00:13:42 15° 248° (WSW) 00:15:58 145.860
ESTCUBE 1 18 Oct 00:14:19 00:18:26 32° 83° (E) 00:22:31 437.505/2401.250
SRMSAT 18 Oct 00:16:21 00:18:49 13° 4° (N) 00:21:16 437.500
nSIGHT-1 18 Oct 00:17:29 00:20:40 45° 215° (SW) 00:23:52 .
NANOSAT C BR1 18 Oct 00:17:53 00:22:00 54° 106° (ESE) 00:26:10 145.865
DUCHIFAT 1 18 Oct 00:30:41 00:34:51 68° 104° (ESE) 00:39:05 145.980
NO-84 18 Oct 00:34:42 00:38:19 89° 133° (SE) 00:42:13 435.350 FM
M-CUBED/EXP-1 PRIME 18 Oct 00:40:39 00:43:33 17° 120° (ESE) 00:46:32 437.505
ISS 18 Oct 00:41:14 00:44:19 33° 212° (SSW) 00:47:25 437.550
BUGSAT 1 18 Oct 00:53:47 00:57:21 29° 109° (ESE) 01:00:55 437.445
YUBILEINY 18 Oct 01:06:19 01:09:55 13° 240° (WSW) 01:13:32 435.215
LO-87 18 Oct 01:10:55 01:14:02 28° 252° (WSW) 01:17:07 145.935 - 145.965
BEESAT 3 18 Oct 01:17:02 01:20:39 45° 64° (ENE) 01:24:17 437.485
Oscar 19 18 Oct 01:18:13 01:22:43 31° 112° (ESE) 01:27:17 437.125/150
Gurwin Techsat 1B 18 Oct 01:21:07 01:25:19 24° 114° (ESE) 01:29:32 435.225
EO-79 18 Oct 01:23:44 01:27:04 22° 275° (W) 01:30:25 145.935-145.965
POLYITAN 1 18 Oct 01:27:36 01:30:45 20° 275° (W) 01:33:57 437.675
AO-7 18 Oct 01:39:12 01:42:18 12° 133° (SE) 01:45:24 .
SPROUT 18 Oct 01:39:17 01:43:35 68° 78° (ENE) 01:47:50 437.525
AO-85 18 Oct 01:47:06 01:51:36 28° 69° (ENE) 01:56:08 145.980
QB50P2 18 Oct 01:50:05 01:51:00 11° 271° (W) 01:51:56 145.880/145.840
ESTCUBE 1 18 Oct 01:51:25 01:55:01 23° 248° (WSW) 01:58:37 437.505/2401.250
VELOX 1 18 Oct 01:56:13 02:00:42 70° 78° (ENE) 02:05:07 145.980
nSIGHT-1 18 Oct 01:56:26 01:57:38 11° 197° (SSW) 01:58:49 .
NANOSAT C BR1 18 Oct 01:56:49 01:58:00 11° 271° (W) 01:59:12 145.865
SRMSAT 18 Oct 02:04:54 02:07:07 12° 354° (N) 02:09:18 437.500
UKube-1 18 Oct 02:11:20 02:13:37 14° 88° (E) 02:15:55 .
M-CUBED/EXP-1 PRIME 18 Oct 02:13:12 02:17:26 49° 284° (WNW) 02:21:58 437.505
ISS 18 Oct 02:21:16 02:21:38 10° 193° (SSW) 02:22:00 437.550
BEESAT 2 18 Oct 02:28:48 02:32:40 89° 58° (ENE) 02:36:34 435.950
BUGSAT 1 18 Oct 02:29:39 02:32:41 20° 275° (W) 02:35:44 437.445
50 SAT 18 Oct 02:45:01 02:48:21 82° 78° (ENE) 02:51:39 437.505
BEESAT 3 18 Oct 02:56:13 02:58:24 15° 227° (SW) 03:00:36 437.485
Oscar 19 18 Oct 02:57:31 03:01:58 29° 276° (W) 03:06:28 437.125/150
Gurwin Techsat 1B 18 Oct 02:59:56 03:04:58 41° 278° (W) 03:10:03 435.225
DX 1 18 Oct 03:14:00 03:18:24 67° 255° (WSW) 03:22:42 434.975-435.025
SPROUT 18 Oct 03:18:15 03:18:51 10° 243° (WSW) 03:19:27 437.525
ITAMSAT 1 18 Oct 03:22:20 03:26:50 30° 112° (ESE) 03:31:23 435.822/435.867
AO-7 18 Oct 03:25:08 03:33:17 60° 113° (ESE) 03:41:32 .
AO-85 18 Oct 03:26:52 03:31:55 40° 233° (SW) 03:36:56 145.980
ITUPSAT 1 18 Oct 03:29:59 03:32:11 13° 89° (E) 03:34:22 437.325
MOZHAYETS 4 18 Oct 03:33:32 03:36:32 17° 87° (E) 03:39:30
VELOX 1 18 Oct 03:35:22 03:36:30 11° 242° (WSW) 03:37:37 145.980
UKube-1 18 Oct 03:45:40 03:49:52 46° 252° (WSW) 03:54:00 .
BEESAT 18 Oct 03:46:46 03:50:21 21° 86° (E) 03:53:55 436.000
Tancredo 1 18 Oct 04:29:13 04:30:56 34° 144° (SE) 04:32:39 437.200
SO-50 18 Oct 04:57:30 05:02:04 47° 126° (SE) 05:06:31 436.795
ITAMSAT 1 18 Oct 05:01:35 05:06:11 31° 277° (W) 05:10:51 435.822/435.867
ITUPSAT 1 18 Oct 05:05:35 05:10:22 60° 254° (WSW) 05:15:05 437.325
MOZHAYETS 4 18 Oct 05:09:24 05:13:51 44° 252° (WSW) 05:18:16
nSIGHT-1 18 Oct 05:10:28 05:12:40 16° 156° (SSE) 05:14:52 .
CUBESAT XI-V 18 Oct 05:11:15 05:15:45 40° 82° (E) 05:20:12 437.345
AO-7 18 Oct 05:19:28 05:26:24 29° 276° (W) 05:33:26 .
BEESAT 18 Oct 05:23:45 05:28:13 38° 251° (WSW) 05:32:37 436.000
KKS-1 18 Oct 05:26:16 05:28:51 15° 87° (E) 05:31:24 437.445
DOVE 4 18 Oct 05:33:29 05:38:46 68° 105° (ESE) 05:44:00 437.250
ISS 18 Oct 05:34:21 05:37:00 21° 153° (SSE) 05:39:37 437.550
LilacSat-2 18 Oct 06:03:48 06:07:10 30° 108° (ESE) 06:10:36 437.200
XW-2F 18 Oct 06:06:07 06:09:22 28° 109° (ESE) 06:12:40 145.980 - 146.000
STARS 18 Oct 06:08:32 06:11:28 17° 86° (E) 06:14:20 437.465
KAITUO 1B 18 Oct 06:10:29 06:13:34 24° 109° (ESE) 06:16:42 145.475/437.950
PCSat 18 Oct 06:13:30 06:18:19 31° 127° (SE) 06:23:06 145.827
XW-2D 18 Oct 06:15:21 06:18:55 40° 107° (ESE) 06:22:33 145.860 - 145.880
CUTE 1.7 + AOD 2 18 Oct 06:27:53 06:29:37 12° 115° (ESE) 06:31:23 437.475
XW-2B 18 Oct 06:28:29 06:32:12 58° 104° (ESE) 06:36:01 145.730 - 145.750
NUDT-PHONESAT 18 Oct 06:29:58 06:33:27 40° 106° (ESE) 06:37:00 437.300
SO-50 18 Oct 06:39:03 06:42:07 17° 289° (WNW) 06:45:08 436.795
SEEDS 18 Oct 06:42:35 06:43:30 11° 116° (ESE) 06:44:25 437.485
CUTE-I 18 Oct 06:45:09 06:50:32 77° 106° (ESE) 06:55:59 437.470
nSIGHT-1 18 Oct 06:46:00 06:49:19 78° 320° (NW) 06:52:34 .
CUBESAT XI-V 18 Oct 06:49:22 06:52:48 20° 246° (WSW) 06:56:12 437.345
HO-68 18 Oct 06:50:23 06:56:59 41° 114° (ESE) 07:03:37 435.675
XW-2C 18 Oct 06:51:28 06:55:15 67° 281° (W) 06:59:06 145.795 - 145.815
CUBEBUG 2 18 Oct 06:53:03 06:54:57 13° 114° (ESE) 06:56:52 437.445
KKS-1 18 Oct 07:01:19 07:05:36 45° 252° (WSW) 07:09:51 437.445
ISS 18 Oct 07:10:25 07:13:39 49° 316° (NW) 07:16:51 437.550
DOVE 4 18 Oct 07:14:10 07:16:48 14° 270° (W) 07:19:26 437.250
AAUSAT CUBESAT 2 18 Oct 07:16:31 07:17:44 11° 116° (ESE) 07:18:57 437.432
XW-2A 18 Oct 07:24:20 07:26:18 15° 112° (ESE) 07:28:16 145.665 - 145.685
UWE-3 18 Oct 07:36:39 07:39:55 22° 111° (ESE) 07:43:09 435.000/436.395/437.385
LilacSat-2 18 Oct 07:39:02 07:41:29 16° 273° (W) 07:43:57 437.200
XW-2F 18 Oct 07:40:54 07:43:28 17° 274° (W) 07:46:05 145.980 - 146.000
STARS 18 Oct 07:43:48 07:47:55 38° 251° (WSW) 07:51:59 437.465
KAITUO 1B 18 Oct 07:44:42 07:47:29 20° 274° (W) 07:50:18 145.475/437.950
XW-2D 18 Oct 07:51:45 07:53:16 12° 271° (W) 07:54:47 145.860 - 145.880
STRAND 1 18 Oct 07:55:47 07:59:52 23° 85° (E) 08:03:53 437.568
PCSat 18 Oct 07:56:47 08:01:42 35° 290° (WNW) 08:06:35 145.827
CUTE 1.7 + AOD 2 18 Oct 08:00:44 08:04:55 56° 280° (W) 08:09:11 437.475
Oscar 11 18 Oct 08:05:23 08:07:58 16° 114° (ESE) 08:10:34 .
NUDT-PHONESAT 18 Oct 08:06:17 08:07:30 11° 271° (W) 08:08:42 437.300
SEEDS 18 Oct 08:14:21 08:18:33 65° 281° (W) 08:22:51 437.485
CUBEBUG 2 18 Oct 08:26:55 08:31:07 51° 280° (W) 08:35:18 437.445
CUTE-I 18 Oct 08:29:08 08:31:07 12° 270° (W) 08:33:06 437.470
AO-73 18 Oct 08:36:57 08:40:58 49° 106° (ESE) 08:45:02 145.935
HO-68 18 Oct 08:38:09 08:44:40 37° 278° (W) 08:51:15 435.675
AAUSAT CUBESAT 2 18 Oct 08:48:27 08:52:35 61° 281° (W) 08:56:49 437.432
XW-2A 18 Oct 08:55:54 08:58:45 25° 276° (W) 09:01:39 145.665 - 145.685
ZACube-1 18 Oct 08:56:47 09:00:58 83° 282° (WNW) 09:05:11 437.345
UWE-3 18 Oct 09:12:35 09:16:12 27° 276° (W) 09:19:49 435.000/436.395/437.385
DELFI C3 18 Oct 09:13:24 09:16:07 18° 112° (ESE) 09:18:52 145.870
O/OREOS (USA 219) 18 Oct 09:15:01 09:18:57 29° 77° (ENE) 09:22:55 437.305
YUBILEINY 18 Oct 09:15:13 09:23:50 54° 102° (ESE) 09:32:18 435.215
Max Valier Satellite 18 Oct 09:15:37 09:16:56 12° 114° (ESE) 09:18:16 145.860
STRAND 1 18 Oct 09:34:22 09:39:06 38° 250° (WSW) 09:43:49 437.568
BEESAT 3 18 Oct 09:35:40 09:38:15 17° 132° (SE) 09:40:49 437.485
Oscar 11 18 Oct 09:39:34 09:43:42 44° 278° (W) 09:47:54 .
UNISAT 6 18 Oct 09:59:37 10:01:10 12° 89° (E) 10:02:44 437.425
TIGRISAT 18 Oct 10:14:17 10:17:01 16° 87° (E) 10:19:46 435.000
AO-73 18 Oct 10:15:55 10:17:28 12° 271° (W) 10:19:01 145.935
AO-85 18 Oct 10:21:15 10:24:09 16° 138° (SE) 10:26:54 145.980
FO-29 18 Oct 10:24:09 10:30:26 90° 68° (ENE) 10:35:56 435.910
